Torna al catalogo

STARLINK-30421

AttivoComunicazioniVLEO
NORAD 58107·PAYLOAD·🇺🇸 United States

Lanciato Oct 21, 2023 da Vandenberg Space Force Base

Loading…

Prossimi Passaggi (prossime 24 ore)

TLE

AggiornatoSource: CelesTrak SupGP

Epoca: Sep 15, 2026, 01:52 UTC

1 58107C 23161L   26258.07826389  .00063167  00000+0  18669-2 0  2582
2 58107  53.1598 348.7481 0001160  89.5058 356.1629 15.34349069    19

Traccia STARLINK-30421 in tempo reale con AllMySat

Download on the App Store